Weather History for Tulsa, OK

Change the Weather History Date:

Thursday, January 10, 2013

  Actual Average Record
Temperature  
Mean Temperature 53 °F 37 °F  
Max Temperature 57 °F 47 °F 76 °F (1990)
Min Temperature 49 °F 27 °F -5 °F (1977)
Degree Days  
Heating Degree Days 12 28  
Month to date heating degree days 266 280  
Since 1 July heating degree days 1518 1708  
Growing Degree Days 2 (Base 50)    
Moisture  
Dew Point 50 °F    
Average Humidity 92    
Maximum Humidity 100    
Minimum Humidity 83    
Precipitation  
Precipitation 0.21 in 0.04 in 1.70 in (1922)
Month to date precipitation 0.30 0.53  
Year to date precipitation 0.30 0.53  
Sea Level Pressure  
Sea Level Pressure 29.89 in    
Wind  
Wind Speed 7 mph (SE)    
Max Wind Speed 16 mph    
Max Gust Speed 22 mph    
Visibility 6 miles    
Events Rain    
T = Trace of Precipitation, MM = Missing Value Source: NWS Daily Summary

Daily Weather History Graph

Daily Weather History Graph

Search for Another Location

Airport:

Trip Planner

Search our weather history database for the weather conditions in past years. The results will help you decide how hot, cold, wet, or windy it might be!

Date:

Astronomy

Jan. 10, 2013 Rise Set
Actual Time 7:34 AM CST 5:27 PM CST
Civil Twilight 7:06 AM CST 5:56 PM CST
Nautical Twilight 6:34 AM CST 6:27 PM CST
Astronomical Twilight 6:03 AM CST 6:58 PM CST
Moon 6:15 AM CST (1/10) 4:36 PM CST (1/10)
Length of Visible Light 10h 49m
Length of Day
9h 52m
Waning Crescent, 2% of the Moon is Illuminated
Jan 10
Waning Crescent
Jan 11
New
Jan 18
First Quarter
Jan 26
Full
Feb 3
Last Quarter

Hourly Weather History & Observations

Time (CST) Temp. Dew Point Humidity Pressure Visibility Wind Dir Wind Speed Gust Speed Precip Events Conditions
12:53 AM 52.0 °F 43.0 °F 71% 30.13 in 10.0 mi ENE 8.1 mph - 0.00 in   Overcast
1:53 AM 52.0 °F 43.0 °F 71% 30.12 in 10.0 mi East 8.1 mph - 0.00 in Rain Light Rain
2:53 AM 50.0 °F 46.0 °F 86% 30.09 in 10.0 mi ENE 8.1 mph - 0.01 in   Overcast
3:53 AM 50.0 °F 46.4 °F 87% 30.06 in 4.0 mi East 5.8 mph - N/A Rain Light Rain
4:50 AM 48.2 °F 46.4 °F 93% 30.01 in 5.0 mi ENE 6.9 mph - 0.03 in Rain Light Rain
4:53 AM 48.9 °F 46.9 °F 93% 30.01 in 5.0 mi ENE 8.1 mph - 0.03 in   Overcast
5:38 AM 48.2 °F 46.4 °F 93% 29.99 in 2.5 mi East 6.9 mph - 0.00 in Rain Light Rain
5:53 AM 48.9 °F 48.0 °F 97% 29.99 in 2.5 mi ENE 5.8 mph - 0.00 in Rain Light Rain
6:53 AM 48.9 °F 48.0 °F 97% 29.98 in 2.0 mi ENE 5.8 mph - 0.03 in Rain Light Rain
6:55 AM 48.2 °F 48.2 °F 100% 29.98 in 2.0 mi ENE 5.8 mph - 0.01 in Rain Light Rain
7:35 AM 48.2 °F 48.2 °F 100% 29.98 in 1.5 mi ENE 5.8 mph - 0.04 in Rain Light Rain
7:53 AM 48.9 °F 48.0 °F 97% 29.98 in 1.2 mi ENE 4.6 mph - 0.05 in Rain Light Rain
8:53 AM 48.2 °F 48.2 °F 100% 29.97 in 1.0 mi ENE 3.5 mph - N/A   Light Drizzle
9:53 AM 50.0 °F 48.9 °F 96% 29.94 in 1.0 mi ENE 4.6 mph - 0.01 in   Light Drizzle
10:53 AM 51.1 °F 51.1 °F 100% 29.93 in 1.0 mi Calm Calm - 0.00 in   Light Drizzle
11:40 AM 53.6 °F 51.8 °F 94% 29.89 in 3.0 mi East 4.6 mph - 0.00 in   Overcast
11:53 AM 53.1 °F 52.0 °F 96% 29.88 in 3.0 mi ESE 4.6 mph - 0.00 in   Overcast
12:08 PM 53.6 °F 53.6 °F 100% 29.88 in 3.0 mi ESE 3.5 mph - N/A   Overcast
12:32 PM 53.6 °F 53.6 °F 100% 29.87 in 2.5 mi SSE 5.8 mph - 0.00 in Rain Light Rain
12:41 PM 53.6 °F 53.6 °F 100% 29.86 in 1.5 mi South 5.8 mph - 0.01 in Rain Light Rain
12:53 PM 54.0 °F 54.0 °F 100% 29.85 in 1.5 mi Calm Calm - 0.03 in Rain Light Rain
12:56 PM 53.6 °F 53.6 °F 100% 29.85 in 2.5 mi SSW 3.5 mph - 0.00 in Rain Light Rain
1:04 PM 55.4 °F 53.6 °F 94% 29.84 in 3.0 mi South 4.6 mph - 0.00 in Rain Light Rain
1:53 PM 54.0 °F 53.1 °F 97% 29.82 in 3.0 mi South 8.1 mph - 0.03 in Rain Light Rain
2:43 PM 55.4 °F 53.6 °F 94% 29.80 in 10.0 mi SE 6.9 mph - 0.00 in   Mostly Cloudy
2:48 PM 55.4 °F 53.6 °F 94% 29.80 in 10.0 mi SSE 9.2 mph - 0.00 in   Mostly Cloudy
2:53 PM 55.9 °F 54.0 °F 93% 29.81 in 10.0 mi SSE 8.1 mph - 0.00 in   Mostly Cloudy
3:01 PM 57.2 °F 55.4 °F 94% 29.81 in 10.0 mi South 8.1 mph - N/A   Mostly Cloudy
3:53 PM 57.0 °F 54.0 °F 89% 29.81 in 10.0 mi South 8.1 mph - N/A   Overcast
4:24 PM 55.4 °F 53.6 °F 94% 29.82 in 10.0 mi South 6.9 mph - N/A   Mostly Cloudy
4:51 PM 55.4 °F 53.6 °F 94% 29.81 in 10.0 mi SSE 9.2 mph - N/A   Mostly Cloudy
4:53 PM 55.9 °F 53.1 °F 90% 29.81 in 10.0 mi SSE 8.1 mph - N/A   Mostly Cloudy
5:53 PM 54.0 °F 50.0 °F 86% 29.81 in 10.0 mi South 11.5 mph - N/A   Scattered Clouds
6:53 PM 53.1 °F 48.9 °F 86% 29.81 in 10.0 mi SSW 9.2 mph 18.4 mph N/A   Scattered Clouds
7:53 PM 51.1 °F 48.0 °F 89% 29.82 in 10.0 mi South 9.2 mph - N/A   Scattered Clouds
8:25 PM 51.8 °F 48.2 °F 88% 29.83 in 10.0 mi South 10.4 mph - N/A   Mostly Cloudy
8:34 PM 51.8 °F 48.2 °F 88% 29.84 in 10.0 mi South 10.4 mph - N/A   Mostly Cloudy
8:53 PM 50.0 °F 48.0 °F 93% 29.83 in 10.0 mi South 10.4 mph - N/A   Scattered Clouds
9:13 PM 51.8 °F 48.2 °F 88% 29.83 in 10.0 mi South 9.2 mph - N/A   Mostly Cloudy
9:35 PM 51.8 °F 48.2 °F 88% 29.84 in 10.0 mi South 6.9 mph - N/A   Overcast
9:53 PM 52.0 °F 48.0 °F 86% 29.83 in 10.0 mi South 9.2 mph - N/A   Overcast
10:38 PM 51.8 °F 48.2 °F 88% 29.84 in 10.0 mi South 15.0 mph 20.7 mph N/A   Overcast
10:53 PM 51.1 °F 48.0 °F 89% 29.83 in 10.0 mi South 15.0 mph 21.9 mph N/A   Overcast
11:53 PM 51.1 °F 48.0 °F 89% 29.84 in 10.0 mi SSW 6.9 mph - N/A   Overcast